Location: Peebles
(55.6412°N, 3.1714°W)
Time: 12:21:15
(UTC+01:00)

ISS - Pass Details

Date: 27 September 2021
Orbit: 417 x 423 km, 51.6° (Epoch: 16 October)

Event Time Altitude Azimuth Distance (km) Brightness Sun altitude
Rises 20:41:14 0° 268° (W) 2,365 1.4 -15.2°
Reaches altitude 10° 20:43:25 10° 260° (W) 1,501 0.0 -15.5°
Maximum altitude 20:46:33 36° 192° (SSW) 689 -2.8 -15.9°
Enters shadow 20:47:27 29° 156° (SSE) 792 -2.8 -16.0°
